CZ-6A DEB, 61268

Orbit data source: Space-Track

CZ-6A DEB, 61268 is space debris in LEO originally from a launch on Tue, 06 Aug 2024 UTC launched from the Taiyaun Space Center, China (TSC). Debris objects in space refer to the collection of defunct objects orbiting the Earth. Examples of debris include non-operational satellites, rocket bodies, and fragments generated from explosions, collisions, or faulty payload assembly.

Loading next visibility...
Identifier
61268, 2024-140SD
Orbit
LEO
Country
Flag of CNCN / PRC
Related business
Manufacturer
SAST
Mission
Spacecraft
Bus & Motor
Unknown
Mass
Unknown
Launch date (UTC)
2024-08-06 (1 year ago)
Launch vehicle
Unknown
Launch site
Taiyaun Space Center, China (TSC)
Object type
Payload
Rocket body
Debris
Shape & HBR
Unknown shape, 0.1 m
Radar Cross Section
Small (<0.1 m²)

Expand to show TLE details & history
Last TLE update: 2 days ago

TLE from 2 days ago
0 CZ-6A DEB
1 61268U 24140SD  25311.99169453  .00006785  00000-0  37327-2 0  9992
2 61268  88.9982 300.8594 0125184 241.1789 117.6780 14.07643533 61611
Epoch: 2025-11-07T23:48Z
TLE epoch observation values (Epoch: 2025-11-07T23:48:02.407Z)
Latitude
-0.00003°
Longitude
-103.57834°
Altitude
913.505 km
Speed
7.373 km/s
True Right ascension
20h 03m 26s
True Declination
0° 00' 00"
Sunlit
Object was in daylight at epoch
Visualization orbit readout
Latitude
Unknown
Longitude
Unknown
Altitude
Unknown
Speed
Unknown
Apparent Right ascension
Unknown
Apparent Declination
Unknown
Sunlit
N/A
Visualization observer readout
Local Sidereal Time
11:26:06
Azimuth
Unknown
Elevation
Unknown
Doppler factor
Unknown
Orbital elements
Apogee altitude
955.08 km
Perigee altitude
773.75 km
Semi-major axis
7,242.552 km
Eccentricity
0.01252
Inclination
88.9982°
RAAN
300.8594°
Arg. of periapsis
241.1789°
True anomaly
118.93908°
Mean anomaly
117.678°
Eccentric anomaly
118.30947°
Mean motion
3.52132 °/min
Orbital period
102.23 mins
BSTAR
0.0037327
Loading maneuver chart data...
Computing Atmospheric mass density...
Loading historical data...
Loading historical data...
Loading historical data...
Loading historical data...
Loading historical data...
Loading historical data...
Loading historical data...

Documentation

Showing up to 5 results
|